Location: A�n Tadlesse
(35.0351°N, 0.5353°E)
Time: 18:50:06
(UTC+00:00)

Gbstr 26 Del rocket - Pass Details

Date: 21 October 2019
Orbit: 493 x 1264 km, 51.8° (Epoch: 20 November)

Event Time Altitude Azimuth Distance (km) Brightness Sun altitude
Rises 18:35:31 0° 315° (NW) 3,448 7.5 -17.0°
Reaches altitude 10° 18:37:55 10° 321° (NW) 2,620 6.8 -17.5°
Maximum altitude 18:44:08 54° 38° (NE) 1,272 4.3 -18.7°
Enters shadow 18:47:35 30° 99° (E) 1,877 4.9 -19.4°
